Birmingham, AL

6:45 AM CDT on July 22, 2017 (GMT -0500)
Birmingham International

Weather History for KBHM - March, 2013

Change the Weather History Date:

Friday, March 15, 2013

  Actual Average Record
Temperature  
Mean Temperature 57 °F 55 °F  
Max Temperature 76 °F 67 °F 88 °F (2016)
Min Temperature 37 °F 44 °F 12 °F (1993)
Degree Days  
Heating Degree Days 8 11  
Month to date heating degree days 264 183  
Since 1 July heating degree days 2262 2373  
Cooling Degree Days 0 1  
Month to date cooling degree days 1 5  
Year to date cooling degree days 7 9  
Growing Degree Days 6 (Base 50)    
Moisture  
Dew Point 36 °F    
Average Humidity 52    
Maximum Humidity 76    
Minimum Humidity 27    
Precipitation  
Precipitation 0.00 in 0.16 in 2.51 in (1976)
Month to date precipitation 1.23 2.57  
Year to date precipitation 15.82 11.94  
Snow  
Snow 0.00 in 0.00 in - ()
Month to date snowfall T 0.3  
Since 1 July snowfall 2.1 1.1  
Snow Depth 0.00 in    
Sea Level Pressure  
Sea Level Pressure 30.14 in    
Wind  
Wind Speed 9 mph (SW)    
Max Wind Speed 24 mph    
Max Gust Speed 29 mph    
Visibility 10 miles    
Events      
T = Trace of Precipitation, MM = Missing Value Source: NWS Daily Summary

Daily Weather History Graph

Daily Weather History Graph

Search for Another Location

Airport or City:

Trip Planner

Search our weather history database for the weather conditions in past years. The results will help you decide how hot, cold, wet, or windy it might be!

Date:

Astronomy

Mar. 15, 2013 Rise Set
Actual Time 6:57 AM CDT 6:55 PM CDT
Civil Twilight 6:32 AM CDT 7:19 PM CDT
Nautical Twilight 6:03 AM CDT 7:48 PM CDT
Astronomical Twilight 5:34 AM CDT 8:17 PM CDT
Moon 8:59 AM CDT (3/15) 10:54 PM CDT (3/15)
Length of Visible Light 12h 47m
Length of Day
11h 57m
Waxing Crescent, 15% of the Moon is Illuminated
Mar 15
Waxing Crescent
Mar 19
First Quarter
Mar 27
Full
Apr 2
Last Quarter
Apr 10
New

Hourly Weather History & Observations

Time (CDT) Temp. Dew Point Humidity Pressure Visibility Wind Dir Wind Speed Gust Speed Precip Events Conditions
12:53 AM 39.9 °F 28.9 °F 65% 30.28 in 10.0 mi Calm Calm - N/A   Clear
1:53 AM 39.0 °F 28.9 °F 67% 30.26 in 10.0 mi Calm Calm - N/A   Clear
2:53 AM 37.9 °F 28.9 °F 70% 30.24 in 10.0 mi Calm Calm - N/A   Clear
3:53 AM 37.4 °F 28.4 °F 70% 30.23 in 10.0 mi Calm Calm - N/A   Clear
4:53 AM 37.0 °F 30.0 °F 76% 30.22 in 10.0 mi Calm Calm - N/A   Clear
5:53 AM 39.0 °F 30.0 °F 70% 30.22 in 10.0 mi Calm Calm - N/A   Clear
6:53 AM 46.0 °F 28.9 °F 51% 30.22 in 10.0 mi Calm Calm - N/A   Clear
7:53 AM 50.0 °F 32.0 °F 50% 30.23 in 10.0 mi SSW 6.9 mph - N/A   Clear
8:53 AM 54.0 °F 32.0 °F 43% 30.23 in 10.0 mi WSW 9.2 mph 18.4 mph N/A   Clear
9:53 AM 57.9 °F 34.0 °F 41% 30.21 in 10.0 mi WSW 8.1 mph - N/A   Clear
10:53 AM 64.0 °F 37.9 °F 38% 30.19 in 10.0 mi SSW 8.1 mph - N/A   Clear
11:53 AM 69.1 °F 41.0 °F 36% 30.17 in 10.0 mi WSW 11.5 mph 18.4 mph N/A   Clear
12:53 PM 72.0 °F 42.1 °F 34% 30.15 in 10.0 mi WSW 11.5 mph - N/A   Clear
1:53 PM 73.9 °F 41.0 °F 30% 30.12 in 10.0 mi WSW 13.8 mph 20.7 mph N/A   Clear
2:53 PM 75.0 °F 41.0 °F 29% 30.08 in 10.0 mi WSW 15.0 mph 25.3 mph N/A   Clear
3:53 PM 75.0 °F 39.0 °F 27% 30.06 in 10.0 mi WSW 19.6 mph 27.6 mph N/A   Clear
4:53 PM 75.0 °F 39.0 °F 27% 30.04 in 10.0 mi SW 13.8 mph 27.6 mph N/A   Clear
5:53 PM 73.0 °F 39.9 °F 30% 30.04 in 10.0 mi SW 13.8 mph 21.9 mph N/A   Clear
6:53 PM 71.1 °F 39.9 °F 32% 30.04 in 10.0 mi SW 9.2 mph - N/A   Clear
7:53 PM 68.0 °F 39.9 °F 36% 30.04 in 10.0 mi SSW 9.2 mph - N/A   Clear
8:53 PM 64.9 °F 39.9 °F 40% 30.04 in 10.0 mi SSW 8.1 mph - N/A   Clear
9:53 PM 64.9 °F 39.9 °F 40% 30.04 in 10.0 mi SSW 9.2 mph - N/A   Clear
10:53 PM 66.0 °F 39.9 °F 38% 30.02 in 10.0 mi SW 15.0 mph 20.7 mph N/A   Clear
11:53 PM 64.0 °F 39.9 °F 41% 30.01 in 10.0 mi SW 13.8 mph 19.6 mph N/A   Clear